When you browse on this site, cookies collect data to enhance your experience and personalize the content and advertising you see.
Visit our Privacy Policy to learn more. By continuing to use the site, you agree to this use of cookies and data.
  • En España
  • Lista de países
  • Para 7 días
  • Temperatura del agua
  • Mapa Satelital
  • El tiempo en el mapa
  • Informadores
  • user-avatar
    Iniciar sesión

    Tiempo cada hora Milwaukee

    Hoy, 21 Abril, Domingo

    Tiempo Temperatura Precipitaciones Viento Presión Humedad
    00:00 +9°C° 0 mm 1 mps 742 mmHg 44%
    01:00 +8°C° 0 mm 2 mps 742 mmHg 46%
    02:00 +8°C° 0 mm 2 mps 742 mmHg 48%
    03:00 +8°C° 0 mm 3 mps 742 mmHg 50%
    04:00 +8°C° 0 mm 3 mps 743 mmHg 53%
    05:00 +8°C° 0 mm 3 mps 743 mmHg 57%
    06:00 +8°C° 0 mm 3 mps 743 mmHg 60%
    07:00 +11°C° 0 mm 3 mps 743 mmHg 58%
    08:00 +13°C° 0 mm 3 mps 744 mmHg 55%
    09:00 +16°C° 0 mm 3 mps 744 mmHg 52%
    10:00 +18°C° 0 mm 4 mps 744 mmHg 50%
    11:00 +19°C° 0 mm 4 mps 744 mmHg 49%
    12:00 +21°C° 0 mm 5 mps 744 mmHg 47%
    13:00 +21°C° 0 mm 5 mps 744 mmHg 46%
    14:00 +21°C° 0 mm 5 mps 744 mmHg 46%
    15:00 +22°C° 0 mm 6 mps 744 mmHg 45%
    16:00 +21°C° 0 mm 5 mps 744 mmHg 48%
    17:00 +19°C° 0 mm 5 mps 744 mmHg 51%
    18:00 +17°C° 0 mm 5 mps 744 mmHg 53%
    19:00 +17°C° 0 mm 5 mps 744 mmHg 54%
    20:00 +16°C° 0 mm 5 mps 745 mmHg 54%
    21:00 +15°C° 0 mm 5 mps 745 mmHg 55%
    22:00 +15°C° 0 mm 5 mps 745 mmHg 59%
    23:00 +15°C° 0 mm 5 mps 745 mmHg 62%

    Mañana, 22 Abril, Lunes

    Tiempo Temperatura Precipitaciones Viento Presión Humedad
    00:00 +15°C° 0 mm 5 mps 745 mmHg 66%
    01:00 +15°C° 0 mm 5 mps 745 mmHg 69%
    02:00 +15°C° 0 mm 5 mps 745 mmHg 71%
    03:00 +14°C° 0 mm 5 mps 744 mmHg 74%
    04:00 +14°C° 0 mm 5 mps 744 mmHg 77%
    05:00 +14°C° 0 mm 5 mps 744 mmHg 79%
    06:00 +13°C° 0 mm 5 mps 744 mmHg 82%
    07:00 +15°C° 0 mm 5 mps 744 mmHg 78%
    08:00 +16°C° 0 mm 5 mps 744 mmHg 74%
    09:00 +19°C° 0 mm 5 mps 744 mmHg 70%
    10:00 +19°C° 0 mm 5 mps 744 mmHg 68%
    11:00 +20°C° 0 mm 5 mps 744 mmHg 67%
    12:00 +20°C° 0 mm 6 mps 744 mmHg 66%
    13:00 +20°C° 0.9 mm 5 mps 743 mmHg 68%
    14:00 +20°C° 0.9 mm 5 mps 742 mmHg 70%
    15:00 +20°C° 0.9 mm 5 mps 742 mmHg 72%
    16:00 +20°C° 0.6 mm 5 mps 741 mmHg 75%
    17:00 +19°C° 0.6 mm 5 mps 741 mmHg 78%
    18:00 +17°C° 0.6 mm 5 mps 741 mmHg 81%
    19:00 +17°C° 0.2 mm 5 mps 740 mmHg 84%
    20:00 +17°C° 0.2 mm 5 mps 740 mmHg 88%
    21:00 +17°C° 0.2 mm 5 mps 740 mmHg 91%
    22:00 +17°C° 0.2 mm 5 mps 739 mmHg 91%
    23:00 +17°C° 0.2 mm 5 mps 739 mmHg 92%

    Pasado mañana, 23 Abril, Martes

    Tiempo Temperatura Precipitaciones Viento Presión Humedad
    00:00 +16°C° 0.2 mm 5 mps 739 mmHg 93%
    01:00 +16°C° 0.7 mm 5 mps 739 mmHg 93%
    02:00 +15°C° 0.7 mm 5 mps 739 mmHg 93%
    03:00 +14°C° 0.7 mm 5 mps 740 mmHg 93%
    04:00 +11°C° 0.1 mm 6 mps 740 mmHg 90%
    05:00 +9°C° 0.1 mm 6 mps 741 mmHg 87%
    06:00 +7°C° 0.1 mm 6 mps 742 mmHg 85%
    07:00 +7°C° 0 mm 5 mps 743 mmHg 83%
    08:00 +7°C° 0 mm 5 mps 744 mmHg 80%
    09:00 +8°C° 0 mm 5 mps 745 mmHg 78%
    10:00 +8°C° 0 mm 4 mps 745 mmHg 75%
    11:00 +10°C° 0 mm 4 mps 746 mmHg 73%
    12:00 +11°C° 0 mm 4 mps 746 mmHg 70%
    13:00 +11°C° 0 mm 4 mps 746 mmHg 69%
    14:00 +11°C° 0 mm 3 mps 746 mmHg 68%
    15:00 +11°C° 0 mm 3 mps 746 mmHg 67%
    16:00 +11°C° 0 mm 3 mps 746 mmHg 69%
    17:00 +10°C° 0 mm 3 mps 747 mmHg 71%
    18:00 +9°C° 0 mm 3 mps 747 mmHg 73%
    19:00 +8°C° 0 mm 2 mps 747 mmHg 74%
    20:00 +7°C° 0 mm 2 mps 748 mmHg 75%
    21:00 +6°C° 0 mm 2 mps 748 mmHg 76%
    22:00 +6°C° 0 mm 2 mps 748 mmHg 75%
    23:00 +6°C° 0 mm 2 mps 748 mmHg 74%

    24 Abril, Miércoles

    Tiempo Temperatura Precipitaciones Viento Presión Humedad
    00:00 +5°C° 0 mm 2 mps 749 mmHg 73%
    01:00 +5°C° 0 mm 2 mps 749 mmHg 73%
    02:00 +6°C° 0 mm 1 mps 748 mmHg 72%
    03:00 +5°C° 0 mm 1 mps 748 mmHg 72%
    04:00 +6°C° 0 mm 1 mps 749 mmHg 70%
    05:00 +6°C° 0 mm 1 mps 749 mmHg 69%
    06:00 +6°C° 0 mm 1 mps 749 mmHg 67%
    07:00 +8°C° 0 mm 1 mps 749 mmHg 61%
    08:00 +9°C° 0 mm 1 mps 749 mmHg 55%
    09:00 +11°C° 0 mm 1 mps 749 mmHg 49%
    10:00 +12°C° 0 mm 2 mps 749 mmHg 47%
    11:00 +13°C° 0 mm 2 mps 748 mmHg 45%
    12:00 +13°C° 0 mm 3 mps 748 mmHg 42%
    13:00 +13°C° 0 mm 3 mps 747 mmHg 42%
    14:00 +13°C° 0 mm 3 mps 747 mmHg 42%
    15:00 +13°C° 0 mm 3 mps 746 mmHg 42%
    16:00 +12°C° 0 mm 3 mps 746 mmHg 43%
    17:00 +11°C° 0 mm 3 mps 746 mmHg 45%
    18:00 +10°C° 0 mm 3 mps 746 mmHg 46%
    19:00 +10°C° 0 mm 3 mps 746 mmHg 45%
    20:00 +9°C° 0 mm 2 mps 746 mmHg 43%
    21:00 +8°C° 0 mm 2 mps 746 mmHg 41%
    22:00 +8°C° 0 mm 2 mps 746 mmHg 43%
    23:00 +8°C° 0 mm 2 mps 745 mmHg 45%

    25 Abril, Jueves

    Tiempo Temperatura Precipitaciones Viento Presión Humedad
    00:00 +8°C° 0 mm 2 mps 745 mmHg 47%
    01:00 +8°C° 0 mm 2 mps 745 mmHg 50%
    02:00 +7°C° 0 mm 2 mps 744 mmHg 54%
    03:00 +7°C° 0 mm 2 mps 744 mmHg 57%
    04:00 +7°C° 0 mm 2 mps 744 mmHg 60%
    05:00 +7°C° 0 mm 2 mps 744 mmHg 63%
    06:00 +7°C° 0 mm 2 mps 744 mmHg 66%
    07:00 +10°C° 0 mm 3 mps 744 mmHg 62%
    08:00 +12°C° 0 mm 3 mps 744 mmHg 58%
    09:00 +14°C° 0 mm 3 mps 743 mmHg 54%
    10:00 +17°C° 0 mm 3 mps 743 mmHg 51%
    11:00 +18°C° 0 mm 3 mps 743 mmHg 48%
    12:00 +20°C° 0 mm 3 mps 742 mmHg 46%
    13:00 +20°C° 0 mm 3 mps 742 mmHg 48%
    14:00 +20°C° 0 mm 3 mps 742 mmHg 51%
    15:00 +21°C° 0 mm 3 mps 742 mmHg 53%
    16:00 +20°C° 0.3 mm 4 mps 742 mmHg 59%
    17:00 +19°C° 0.3 mm 4 mps 743 mmHg 65%
    18:00 +17°C° 0.3 mm 4 mps 743 mmHg 71%
    19:00 +15°C° 0 mm 4 mps 744 mmHg 75%
    20:00 +14°C° 0 mm 3 mps 745 mmHg 78%
    21:00 +12°C° 0 mm 3 mps 745 mmHg 81%
    22:00 +12°C° 0 mm 3 mps 746 mmHg 83%
    23:00 +12°C° 0 mm 2 mps 746 mmHg 84%

    26 Abril, Viernes

    Tiempo Temperatura Precipitaciones Viento Presión Humedad
    00:00 +10°C° 0 mm 2 mps 746 mmHg 86%
    01:00 +9°C° 0 mm 2 mps 746 mmHg 86%
    02:00 +9°C° 0 mm 2 mps 746 mmHg 87%
    03:00 +9°C° 0 mm 2 mps 747 mmHg 88%
    04:00 +9°C° 0 mm 2 mps 747 mmHg 83%
    05:00 +9°C° 0 mm 2 mps 748 mmHg 79%
    06:00 +9°C° 0 mm 3 mps 748 mmHg 75%
    07:00 +11°C° 0 mm 3 mps 748 mmHg 67%
    08:00 +13°C° 0 mm 3 mps 749 mmHg 59%
    09:00 +16°C° 0 mm 3 mps 749 mmHg 52%
    10:00 +15°C° 0 mm 4 mps 749 mmHg 50%
    11:00 +17°C° 0 mm 4 mps 749 mmHg 48%
    12:00 +18°C° 0 mm 4 mps 749 mmHg 47%
    13:00 +17°C° 0 mm 4 mps 749 mmHg 47%
    14:00 +17°C° 0 mm 4 mps 749 mmHg 48%
    15:00 +15°C° 0 mm 4 mps 749 mmHg 49%
    16:00 +14°C° 0 mm 4 mps 749 mmHg 47%
    17:00 +12°C° 0 mm 3 mps 749 mmHg 44%
    18:00 +11°C° 0 mm 3 mps 749 mmHg 42%
    19:00 +10°C° 0 mm 3 mps 749 mmHg 41%
    20:00 +10°C° 0 mm 2 mps 750 mmHg 39%
    21:00 +9°C° 0 mm 2 mps 750 mmHg 38%
    22:00 +9°C° 0 mm 2 mps 750 mmHg 39%
    23:00 +9°C° 0 mm 2 mps 750 mmHg 39%
    Mostrar más